sat.trackr.live / text

‹ back to catalog

CENTISPACE-2 S10

NORAD 68359 · 2026-060K

PAYLOAD ACTIVE UNKNOWN

§ Identity

Operator
Country
PRC
Launch date
2026-03-22
Launch site
YSLA
Launch vehicle
Mass (kg)
RCS (m²)

External: N2YO · Heavens-Above · Gunter

§ Orbital elements

Epoch: 2026-05-25T05:25:11.965152Z

Period
97.74 min
Inclination
54.9766°
Eccentricity
0.0014081
Mean motion
14.73360938 rev/d
Perigee alt
640.5 km
Apogee alt
660.3 km
Semi-major
7,028.5 km
B*
2.2710e-4
RAAN
129.5396°
Arg perigee
97.9309°
Mean anomaly
262.3289°
Rev number
938

§ Raw data

CENTISPACE-2 S101 68359U 26060K   26145.22583293  .00001277  00000+0  22710-3 0  99982 68359  54.9766 129.5396 0014081  97.9309 262.3289 14.73360938  9382

JSON: /api/v1/satellites/68359 · /tle

For live sub-satellite position, see the globe view (requires WebGL).

§ Visibility from observer

Set your observer location to see the next 7 days of passes ≥ 10°. The values pass through the URL so the page stays shareable.

No JS? Fill the form by hand. The geolocation button needs JavaScript.